| time (UTC) | temp F | wind direction | speed MPH | gust MPH | rain 1hr in | rain 24hr in | rain mn in | humidity % | barometer mb |
| 20260904091503 | 71 | 7 | 0.0 | 0.0 | 0.00 | 0.03 | 0.00 | 96 | 1007.6 |
| 20260904090002 | 71 | 7 | 0.0 | 0.0 | 0.00 | 0.18 | 0.00 | 96 | 1007.7 |
| 20260904084501 | 71 | 7 | 0.0 | 0.0 | 0.00 | 0.18 | 0.00 | 96 | 1007.7 |
| 20260904083100 | 71 | 7 | 0.0 | 0.0 | 0.00 | 0.18 | 0.00 | 96 | 1007.7 |
| 20260904081558 | 71 | 7 | 0.0 | 0.0 | 0.00 | 0.18 | 0.00 | 95 | 1007.6 |
| 20260904080057 | 72 | 7 | 0.0 | 0.0 | 0.00 | 0.18 | 0.00 | 95 | 1007.6 |
| 20260904074555 | 72 | 7 | 0.0 | 0.0 | 0.00 | 0.18 | 0.00 | 94 | 1007.6 |
| 20260904073054 | 72 | 7 | 0.0 | 0.0 | 0.00 | 0.18 | 0.00 | 94 | 1007.7 |
| 20260904071548 | 73 | 6 | 0.0 | 0.0 | 0.00 | 0.18 | 0.00 | 93 | 1008.1 |
| 20260904070047 | 73 | 7 | 0.0 | 0.0 | 0.00 | 0.18 | 0.00 | 94 | 1008.2 |
| 20260904064549 | 73 | 7 | 0.0 | 0.0 | 0.00 | 0.18 | 0.00 | 94 | 1008.3 |
| 20260904063043 | 72 | 6 | 0.0 | 0.0 | 0.00 | 0.18 | 0.00 | 94 | 1008.4 |
| 20260904061548 | 72 | 7 | 0.0 | 0.0 | 0.00 | 0.18 | 0.00 | 94 | 1008.5 |
| 20260904060040 | 72 | 7 | 0.0 | 0.0 | 0.00 | 0.18 | 0.00 | 94 | 1008.6 |
| 20260904054538 | 72 | 6 | 0.0 | 2.0 | 0.00 | 0.18 | 0.00 | 94 | 1008.6 |
| 20260904053036 | 72 | 338 | 0.0 | 1.0 | 0.00 | 0.18 | 0.00 | 94 | 1008.7 |
| 20260904051535 | 72 | 10 | 0.0 | 0.0 | 0.00 | 0.18 | 0.00 | 94 | 1009.0 |
| 20260904050032 | 72 | 8 | 0.0 | 1.0 | 0.00 | 0.18 | 0.00 | 94 | 1009.0 |
| 20260904044539 | 73 | 9 | 0.0 | 0.0 | 0.00 | 0.18 | 0.00 | 94 | 1009.0 |
| 20260904043025 | 73 | 9 | 0.0 | 1.0 | 0.00 | 0.18 | 0.00 | 94 | 1009.3 |
| 20260904041532 | 73 | 114 | 0.0 | 0.0 | 0.00 | 0.18 | 0.00 | 94 | 1009.4 |
| 20260904040116 | 73 | 228 | 0.0 | 1.0 | 0.00 | 0.18 | 0.00 | 94 | 1009.4 |
| 20260904034515 | 73 | 360 | 0.0 | 0.0 | 0.00 | 0.18 | 0.18 | 93 | 1009.4 |
| 20260904033015 | 73 | 2 | 0.0 | 0.0 | 0.00 | 0.18 | 0.18 | 93 | 1009.4 |
| 20260904031514 | 73 | 359 | 0.0 | 0.0 | 0.00 | 0.18 | 0.18 | 93 | 1009.5 |
| 20260904030014 | 73 | 359 | 0.0 | 0.0 | 0.00 | 0.18 | 0.18 | 93 | 1009.4 |
| 20260904024514 | 73 | 359 | 0.0 | 0.0 | 0.00 | 0.18 | 0.18 | 92 | 1009.6 |
| 20260904023013 | 74 | 358 | 0.0 | 0.0 | 0.00 | 0.18 | 0.18 | 92 | 1009.8 |
| 20260904021515 | 74 | 358 | 0.0 | 0.0 | 0.00 | 0.18 | 0.18 | 92 | 1009.8 |
| 20260904020012 | 74 | 358 | 0.0 | 0.0 | 0.00 | 0.18 | 0.18 | 92 | 1009.9 |
| 20260904014512 | 74 | 358 | 0.0 | 1.0 | 0.00 | 0.18 | 0.18 | 91 | 1010.1 |
| 20260904013011 | 74 | 358 | 0.0 | 0.0 | 0.00 | 0.18 | 0.18 | 90 | 1010.3 |
| 20260904011510 | 75 | 358 | 0.0 | 0.0 | 0.00 | 0.18 | 0.18 | 91 | 1010.4 |
| 20260904010010 | 75 | 359 | 0.0 | 0.0 | 0.00 | 0.18 | 0.18 | 90 | 1010.2 |
| 20260904004510 | 75 | 359 | 0.0 | 0.0 | 0.00 | 0.18 | 0.18 | 90 | 1010.0 |
| 20260904003009 | 75 | 359 | 0.0 | 0.0 | 0.00 | 0.18 | 0.18 | 90 | 1010.0 |
| 20260904001509 | 75 | 359 | 0.0 | 0.0 | 0.00 | 0.18 | 0.18 | 89 | 1009.8 |
| 20260904000007 | 76 | 359 | 0.0 | 0.0 | 0.00 | 0.18 | 0.18 | 88 | 1009.4 |
| 20260903234509 | 76 | 359 | 0.0 | 0.0 | 0.00 | 0.18 | 0.18 | 87 | 1009.4 |
| 20260903233008 | 77 | 359 | 0.0 | 0.0 | 0.00 | 0.18 | 0.18 | 86 | 1009.3 |
| 20260903231505 | 78 | 359 | 0.0 | 0.0 | 0.00 | 0.18 | 0.18 | 85 | 1009.2 |
| 20260903230003 | 79 | 359 | 0.0 | 0.0 | 0.00 | 0.18 | 0.18 | 83 | 1009.0 |
| 20260903224502 | 79 | 359 | 0.0 | 0.0 | 0.00 | 0.18 | 0.18 | 81 | 1009.2 |
| 20260903223114 | 80 | 359 | 0.0 | 0.0 | 0.00 | 0.18 | 0.18 | 80 | 1009.3 |
| 20260903221559 | 80 | 359 | 0.0 | 0.0 | 0.00 | 0.18 | 0.18 | 79 | 1009.5 |
| 20260903220107 | 81 | 2 | 0.0 | 2.0 | 0.00 | 0.18 | 0.18 | 78 | 1009.4 |
| 20260903214559 | 81 | 342 | 0.0 | 1.0 | 0.00 | 0.18 | 0.18 | 76 | 1009.3 |
| 20260903213058 | 81 | 10 | 0.0 | 2.0 | 0.00 | 0.18 | 0.18 | 78 | 1009.2 |
| 20260903211610 | 81 | 344 | 0.0 | 2.0 | 0.00 | 0.18 | 0.18 | 76 | 1009.4 |
| 20260903210057 | 82 | 200 | 0.0 | 2.0 | 0.00 | 0.18 | 0.18 | 76 | 1009.3 |
| 20260903204602 | 82 | 189 | 0.0 | 1.0 | 0.00 | 0.18 | 0.18 | 75 | 1009.3 |
| 20260903203055 | 82 | 202 | 0.0 | 0.0 | 0.00 | 0.18 | 0.18 | 78 | 1009.3 |
| 20260903201553 | 83 | 191 | 0.0 | 1.0 | 0.00 | 0.18 | 0.18 | 75 | 1009.6 |
| 20260903200054 | 83 | 169 | 0.0 | 0.0 | 0.00 | 0.18 | 0.18 | 75 | 1009.7 |
| 20260903194553 | 84 | 172 | 0.0 | 1.0 | 0.00 | 0.18 | 0.18 | 73 | 1009.8 |
| 20260903193050 | 83 | 188 | 0.0 | 1.0 | 0.00 | 0.18 | 0.18 | 74 | 1009.9 |
| 20260903191556 | 82 | 15 | 0.0 | 5.0 | 0.00 | 0.18 | 0.18 | 76 | 1010.1 |
| 20260903190045 | 82 | 176 | 0.0 | 2.0 | 0.00 | 0.18 | 0.18 | 76 | 1010.1 |
| 20260903184542 | 81 | 200 | 0.0 | 2.0 | 0.00 | 0.18 | 0.18 | 77 | 1010.4 |
| 20260903183101 | 80 | 173 | 0.0 | 2.0 | 0.00 | 0.18 | 0.18 | 77 | 1010.5 |
| 20260903181538 | 81 | 12 | 0.0 | 3.0 | 0.00 | 0.18 | 0.18 | 77 | 1010.5 |
| 20260903180039 | 81 | 355 | 0.0 | 4.0 | 0.00 | 0.18 | 0.18 | 79 | 1010.6 |
| 20260903174537 | 80 | 22 | 0.0 | 2.0 | 0.00 | 0.18 | 0.18 | 79 | 1010.6 |
| 20260903173037 | 80 | 355 | 0.0 | 3.0 | 0.00 | 0.18 | 0.18 | 80 | 1010.6 |
| 20260903171534 | 81 | 79 | 0.0 | 3.0 | 0.00 | 0.18 | 0.18 | 78 | 1010.7 |
| 20260903170033 | 80 | 335 | 0.0 | 4.0 | 0.00 | 0.18 | 0.18 | 80 | 1011.0 |
| 20260903164529 | 81 | 207 | 0.0 | 2.0 | 0.00 | 0.18 | 0.18 | 82 | 1010.8 |
| 20260903163026 | 79 | 204 | 0.0 | 3.0 | 0.00 | 0.18 | 0.18 | 86 | 1010.8 |
| 20260903161532 | 78 | 196 | 0.0 | 0.0 | 0.00 | 0.18 | 0.18 | 88 | 1010.8 |
| 20260903160119 | 77 | 202 | 0.0 | 0.0 | 0.00 | 0.18 | 0.18 | 89 | 1011.0 |
| 20260903154514 | 76 | 194 | 0.0 | 0.0 | 0.00 | 0.18 | 0.18 | 90 | 1011.1 |
| 20260903153011 | 75 | 192 | 0.0 | 0.0 | 0.00 | 0.18 | 0.18 | 92 | 1011.4 |
| 20260903151508 | 74 | 192 | 0.0 | 0.0 | 0.00 | 0.18 | 0.18 | 92 | 1011.6 |
| 20260903150003 | 73 | 194 | 0.0 | 2.0 | 0.00 | 0.18 | 0.18 | 94 | 1011.7 |
| 20260903144601 | 73 | 188 | 0.0 | 0.0 | 0.00 | 0.18 | 0.18 | 95 | 1012.0 |
| 20260903143058 | 72 | 188 | 0.0 | 0.0 | 0.00 | 0.18 | 0.18 | 96 | 1012.3 |
| 20260903141555 | 72 | 207 | 0.0 | 0.0 | 0.01 | 0.18 | 0.18 | 97 | 1012.3 |
| 20260903140054 | 71 | 197 | 0.0 | 1.0 | 0.01 | 0.18 | 0.18 | 97 | 1012.6 |
| 20260903134605 | 71 | 188 | 0.0 | 1.0 | 0.01 | 0.18 | 0.18 | 97 | 1012.6 |
| 20260903133052 | 71 | 177 | 0.0 | 1.0 | 0.01 | 0.18 | 0.18 | 97 | 1012.6 |
| 20260903131549 | 71 | 192 | 0.0 | 0.0 | 0.00 | 0.17 | 0.17 | 97 | 1012.9 |
| 20260903130050 | 71 | 192 | 0.0 | 0.0 | 0.00 | 0.17 | 0.17 | 97 | 1012.7 |
| 20260903124558 | 71 | 192 | 0.0 | 0.0 | 0.00 | 0.17 | 0.17 | 97 | 1012.7 |
| 20260903123047 | 71 | 192 | 0.0 | 0.0 | 0.00 | 0.17 | 0.17 | 97 | 1012.7 |
| 20260903121552 | 71 | 174 | 0.0 | 0.0 | 0.00 | 0.17 | 0.17 | 97 | 1013.0 |
| 20260903120045 | 71 | 171 | 0.0 | 2.0 | 0.00 | 0.17 | 0.17 | 97 | 1013.1 |
| 20260903114544 | 70 | 210 | 0.0 | 2.0 | 0.00 | 0.17 | 0.17 | 97 | 1013.3 |
| 20260903113042 | 70 | 199 | 0.0 | 0.0 | 0.01 | 0.17 | 0.17 | 97 | 1013.2 |
| 20260903111541 | 70 | 202 | 0.0 | 0.0 | 0.01 | 0.17 | 0.17 | 98 | 1013.3 |
| 20260903110040 | 70 | 197 | 0.0 | 0.0 | 0.01 | 0.17 | 0.17 | 98 | 1013.2 |
| 20260903104538 | 69 | 218 | 0.0 | 0.0 | 0.01 | 0.17 | 0.17 | 98 | 1013.2 |
| 20260903103036 | 68 | 161 | 0.0 | 0.0 | 0.00 | 0.16 | 0.16 | 97 | 1012.8 |
| 20260903101536 | 68 | 204 | 0.0 | 0.0 | 0.00 | 0.16 | 0.16 | 97 | 1012.7 |
| 20260903100033 | 67 | 204 | 0.0 | 0.0 | 0.01 | 0.16 | 0.16 | 97 | 1012.8 |
| 20260903094528 | 67 | 206 | 0.0 | 0.0 | 0.13 | 0.16 | 0.16 | 97 | 1013.3 |
| 20260903093026 | 66 | 206 | 0.0 | 0.0 | 0.14 | 0.16 | 0.16 | 96 | 1013.4 |